LAN1324 SCEL-SGAS

Flight info

Callsign LAN1324
Flight time 1h 54m
Altitude 37000
Route GUVOL4A GUVOL UN527 JUA UM529 ARPAS
Aircraft A321/M-SDE3FGHIRWY/LB1

Departure

Time 2026-04-26 07:11
Airport Comodoro Arturo Merino Benítez International Airport (SCEL)

Arrival

Time 2026-04-26 09:05
Airport Silvio Pettirossi International Airport (SGAS)
Time Latitude Longitude Altitude Speed Heading
2026-04-26 06:49 -33.39911 -70.79779 1563 ft 0 kts 180°
2026-04-26 06:57 -33.39903 -70.79779 1563 ft 2 kts 180°
2026-04-26 06:57 -33.39888 -70.79779 1563 ft 2 kts 180°
2026-04-26 06:58 -33.39873 -70.79779 1563 ft 2 kts 180°
2026-04-26 06:58 -33.39858 -70.79778 1563 ft 2 kts 198°
2026-04-26 06:58 -33.39844 -70.79769 1563 ft 2 kts 220°
2026-04-26 06:58 -33.39834 -70.79756 1563 ft 2 kts 243°
2026-04-26 06:59 -33.39830 -70.79740 1563 ft 1 kts 264°
2026-04-26 06:59 -33.39830 -70.79733 1563 ft 1 kts 270°
2026-04-26 06:59 -33.39830 -70.79730 1563 ft 0 kts 268°
2026-04-26 07:01 -33.39830 -70.79739 1563 ft 1 kts 269°
2026-04-26 07:01 -33.39830 -70.79760 1563 ft 2 kts 269°
2026-04-26 07:01 -33.39831 -70.79791 1562 ft 4 kts 269°
2026-04-26 07:02 -33.39832 -70.79833 1562 ft 5 kts 266°
2026-04-26 07:02 -33.39835 -70.79887 1563 ft 6 kts 266°
2026-04-26 07:02 -33.39839 -70.79955 1563 ft 7 kts 267°
2026-04-26 07:02 -33.39810 -70.80019 1562 ft 8 kts 334°
2026-04-26 07:03 -33.39738 -70.80033 1562 ft 10 kts 358°
2026-04-26 07:03 -33.39657 -70.80037 1562 ft 11 kts 358°
2026-04-26 07:03 -33.39567 -70.80041 1562 ft 12 kts 358°
2026-04-26 07:03 -33.39469 -70.80047 1562 ft 12 kts 356°
2026-04-26 07:04 -33.39366 -70.80054 1562 ft 13 kts 357°
2026-04-26 07:04 -33.39257 -70.80059 1562 ft 14 kts 358°
2026-04-26 07:04 -33.39152 -70.80064 1562 ft 14 kts 358°
2026-04-26 07:04 -33.39049 -70.80069 1562 ft 14 kts 356°
2026-04-26 07:05 -33.38944 -70.80076 1562 ft 15 kts 357°
2026-04-26 07:05 -33.38837 -70.80082 1562 ft 15 kts 357°
2026-04-26 07:05 -33.38730 -70.80087 1562 ft 15 kts 358°
2026-04-26 07:05 -33.38620 -70.80094 1562 ft 15 kts 356°
2026-04-26 07:06 -33.38508 -70.80100 1562 ft 16 kts 358°
2026-04-26 07:06 -33.38395 -70.80104 1562 ft 16 kts 358°
2026-04-26 07:06 -33.38282 -70.80110 1562 ft 16 kts 357°
2026-04-26 07:06 -33.38168 -70.80116 1562 ft 16 kts 358°
2026-04-26 07:07 -33.38052 -70.80122 1562 ft 16 kts 358°
2026-04-26 07:07 -33.37937 -70.80128 1562 ft 16 kts 357°
2026-04-26 07:07 -33.37820 -70.80134 1562 ft 16 kts 358°
2026-04-26 07:07 -33.37703 -70.80140 1562 ft 16 kts 357°
2026-04-26 07:08 -33.37585 -70.80148 1562 ft 16 kts 357°
2026-04-26 07:08 -33.37467 -70.80154 1562 ft 17 kts 357°
2026-04-26 07:08 -33.37348 -70.80160 1562 ft 17 kts 358°
2026-04-26 07:08 -33.37230 -70.80166 1562 ft 15 kts 357°
2026-04-26 07:09 -33.37136 -70.80190 1562 ft 13 kts 320°
2026-04-26 07:09 -33.37105 -70.80290 1562 ft 13 kts 265°
2026-04-26 07:09 -33.37163 -70.80371 1562 ft 13 kts 197°
2026-04-26 07:09 -33.37262 -70.80370 1562 ft 16 kts 178°
2026-04-26 07:10 -33.39578 -70.80250 1883 ft 172 kts 178°
2026-04-26 07:11 -33.42161 -70.80188 3481 ft 172 kts 176°
2026-04-26 07:11 -33.43460 -70.80121 3900 ft 184 kts 180°
2026-04-26 07:11 -33.44697 -70.80678 4181 ft 202 kts 223°
2026-04-26 07:11 -33.45316 -70.82211 4484 ft 219 kts 258°
2026-04-26 07:12 -33.45474 -70.84073 4956 ft 228 kts 265°
2026-04-26 07:12 -33.45598 -70.85951 5651 ft 226 kts 264°
2026-04-26 07:12 -33.45773 -70.87826 6266 ft 228 kts 262°
2026-04-26 07:12 -33.45997 -70.89707 6865 ft 231 kts 261°
2026-04-26 07:13 -33.46246 -70.91592 7382 ft 237 kts 260°
2026-04-26 07:13 -33.46526 -70.93605 7780 ft 253 kts 261°
2026-04-26 07:13 -33.46491 -70.95713 8470 ft 257 kts 289°
2026-04-26 07:13 -33.45522 -70.97433 9194 ft 256 kts 322°
2026-04-26 07:14 -33.43923 -70.98308 9845 ft 257 kts 354°
2026-04-26 07:14 -33.41969 -70.98216 10502 ft 263 kts
2026-04-26 07:14 -33.40095 -70.97979 11163 ft 270 kts
2026-04-26 07:14 -33.38202 -70.97765 11768 ft 277 kts
2026-04-26 07:15 -33.36290 -70.97568 12394 ft 282 kts
2026-04-26 07:15 -33.34313 -70.97375 13017 ft 287 kts
2026-04-26 07:15 -33.32301 -70.97185 13658 ft 292 kts
2026-04-26 07:15 -33.30268 -70.96995 14147 ft 301 kts
2026-04-26 07:16 -33.28148 -70.96800 14718 ft 307 kts
2026-04-26 07:16 -33.26002 -70.96601 15354 ft 311 kts
2026-04-26 07:16 -33.23852 -70.96402 15851 ft 318 kts
2026-04-26 07:16 -33.21603 -70.95990 16146 ft 336 kts 15°
2026-04-26 07:17 -33.19426 -70.94810 16398 ft 352 kts 32°
2026-04-26 07:17 -33.17390 -70.93110 16624 ft 367 kts 36°
2026-04-26 07:17 -33.15302 -70.91255 16874 ft 381 kts 37°
2026-04-26 07:17 -33.13128 -70.89334 17111 ft 395 kts 36°
2026-04-26 07:18 -33.10850 -70.87354 17333 ft 409 kts 36°
2026-04-26 07:18 -33.08511 -70.85344 17571 ft 422 kts 36°
2026-04-26 07:18 -33.06087 -70.83277 17756 ft 434 kts 36°
2026-04-26 07:18 -33.03614 -70.81152 18015 ft 442 kts 36°
2026-04-26 07:19 -33.01160 -70.78980 18445 ft 447 kts 37°
2026-04-26 07:19 -32.98656 -70.76744 18944 ft 449 kts 37°
2026-04-26 07:19 -32.96135 -70.74497 19398 ft 453 kts 37°
2026-04-26 07:19 -32.93614 -70.72292 19800 ft 456 kts 34°
2026-04-26 07:20 -32.90792 -70.70525 20180 ft 459 kts 21°
2026-04-26 07:20 -32.87581 -70.69499 20659 ft 458 kts
2026-04-26 07:20 -32.84251 -70.69164 21104 ft 460 kts
2026-04-26 07:20 -32.80951 -70.68993 21486 ft 463 kts 360°
2026-04-26 07:21 -32.77711 -70.68837 21875 ft 466 kts 360°
2026-04-26 07:21 -32.74454 -70.68659 22310 ft 469 kts
2026-04-26 07:21 -32.71205 -70.68462 22680 ft 472 kts
2026-04-26 07:21 -32.67890 -70.68243 23047 ft 475 kts
2026-04-26 07:22 -32.64596 -70.67890 23397 ft 481 kts
2026-04-26 07:22 -32.61429 -70.66495 23712 ft 490 kts 29°
2026-04-26 07:22 -32.58814 -70.63966 24086 ft 493 kts 48°
2026-04-26 07:22 -32.56874 -70.60596 24465 ft 494 kts 60°
2026-04-26 07:23 -32.55138 -70.57055 24780 ft 498 kts 61°
2026-04-26 07:23 -32.53415 -70.53535 25169 ft 499 kts 60°
2026-04-26 07:23 -32.51659 -70.50008 25738 ft 496 kts 60°
2026-04-26 07:23 -32.49879 -70.46491 26146 ft 498 kts 59°
2026-04-26 07:24 -32.48091 -70.42996 26445 ft 502 kts 59°
2026-04-26 07:24 -32.46261 -70.39439 26717 ft 506 kts 58°
2026-04-26 07:24 -32.44425 -70.35882 27027 ft 509 kts 59°
2026-04-26 07:24 -32.42558 -70.32272 27331 ft 511 kts 58°
2026-04-26 07:25 -32.40628 -70.28545 27747 ft 512 kts 58°
2026-04-26 07:25 -32.38726 -70.24863 28180 ft 511 kts 58°
2026-04-26 07:25 -32.36664 -70.20614 28647 ft 512 kts 61°
2026-04-26 07:25 -32.34775 -70.16362 29081 ft 513 kts 62°
2026-04-26 07:26 -32.32868 -70.12001 29489 ft 514 kts 62°
2026-04-26 07:26 -32.31020 -70.07783 29903 ft 515 kts 62°
2026-04-26 07:26 -32.29176 -70.03576 30278 ft 516 kts 61°
2026-04-26 07:26 -32.27353 -69.99432 30656 ft 517 kts 61°
2026-04-26 07:27 -32.25645 -69.95563 30962 ft 518 kts 60°
2026-04-26 07:27 -32.23990 -69.91816 31304 ft 519 kts 60°
2026-04-26 07:27 -32.22321 -69.88049 31631 ft 519 kts 60°
2026-04-26 07:27 -32.20647 -69.84278 31929 ft 520 kts 60°
2026-04-26 07:28 -32.18958 -69.80468 32216 ft 522 kts 60°
2026-04-26 07:28 -32.17285 -69.76702 32524 ft 523 kts 60°
2026-04-26 07:28 -32.15588 -69.72894 32832 ft 523 kts 59°
2026-04-26 07:28 -32.13912 -69.69120 33183 ft 523 kts 60°
2026-04-26 07:29 -32.12225 -69.65334 33487 ft 524 kts 59°
2026-04-26 07:29 -32.10532 -69.61532 33753 ft 525 kts 59°
2026-04-26 07:29 -32.08839 -69.57748 34013 ft 527 kts 59°
2026-04-26 07:29 -32.07127 -69.53909 34367 ft 526 kts 59°
2026-04-26 07:30 -32.05428 -69.50118 34727 ft 525 kts 59°
2026-04-26 07:30 -32.03725 -69.46310 35016 ft 526 kts 59°
2026-04-26 07:30 -32.02023 -69.42511 35366 ft 525 kts 58°
2026-04-26 07:30 -32.00164 -69.38373 35737 ft 524 kts 58°
2026-04-26 07:31 -31.98270 -69.34161 36033 ft 524 kts 58°
2026-04-26 07:31 -31.96521 -69.30275 36225 ft 526 kts 58°
2026-04-26 07:31 -31.94882 -69.26645 36341 ft 529 kts 57°
2026-04-26 07:31 -31.92935 -69.22315 36546 ft 530 kts 58°
2026-04-26 07:32 -31.91095 -69.18240 36768 ft 531 kts 57°
2026-04-26 07:32 -31.89354 -69.14385 36940 ft 532 kts 57°
2026-04-26 07:32 -31.87526 -69.10340 37093 ft 534 kts 58°
2026-04-26 07:32 -31.85829 -69.06599 37214 ft 535 kts 58°
2026-04-26 07:33 -31.84030 -69.02628 37345 ft 537 kts 57°
2026-04-26 07:33 -31.80024 -68.93792 37300 ft 537 kts 57°
2026-04-26 07:34 -31.76009 -68.84972 37234 ft 538 kts 57°
2026-04-26 07:34 -31.71993 -68.76160 37171 ft 538 kts 57°
2026-04-26 07:35 -31.67994 -68.67416 37106 ft 538 kts 57°
2026-04-26 07:35 -31.63957 -68.58619 37044 ft 540 kts 57°
2026-04-26 07:36 -31.59921 -68.49828 36993 ft 542 kts 57°
2026-04-26 07:36 -31.55857 -68.41004 36971 ft 541 kts 56°
2026-04-26 07:37 -31.51767 -68.32539 36970 ft 541 kts 54°
2026-04-26 07:37 -31.48062 -68.24965 36993 ft 543 kts 54°
2026-04-26 07:38 -31.43801 -68.16217 37021 ft 543 kts 54°
2026-04-26 07:38 -31.39498 -68.07395 37061 ft 543 kts 54°
2026-04-26 07:39 -31.35184 -67.98572 37103 ft 544 kts 54°
2026-04-26 07:39 -31.30871 -67.89759 37066 ft 544 kts 54°
2026-04-26 07:40 -31.26516 -67.80893 37015 ft 545 kts 54°
2026-04-26 07:40 -31.22189 -67.72095 36990 ft 545 kts 54°
2026-04-26 07:41 -31.18150 -67.63903 36995 ft 547 kts 54°
2026-04-26 07:41 -31.14053 -67.55602 37029 ft 547 kts 53°
2026-04-26 07:42 -31.10247 -67.47914 37076 ft 547 kts 53°
2026-04-26 07:42 -31.06443 -67.40254 37078 ft 548 kts 53°
2026-04-26 07:43 -31.02562 -67.32458 37049 ft 548 kts 53°
2026-04-26 07:43 -30.98708 -67.24707 37021 ft 548 kts 53°
2026-04-26 07:44 -30.94293 -67.15858 36999 ft 548 kts 52°
2026-04-26 07:44 -30.89820 -67.06930 36980 ft 549 kts 53°
2026-04-26 07:45 -30.85906 -66.99140 36974 ft 549 kts 53°
2026-04-26 07:45 -30.81710 -66.90791 36974 ft 550 kts 53°
2026-04-26 07:46 -30.77255 -66.81947 36975 ft 550 kts 53°
2026-04-26 07:46 -30.72795 -66.73113 36977 ft 550 kts 52°
2026-04-26 07:47 -30.68339 -66.64306 36967 ft 549 kts 52°
2026-04-26 07:47 -30.64217 -66.56190 36983 ft 552 kts 52°
2026-04-26 07:48 -30.60362 -66.48601 36996 ft 550 kts 52°
2026-04-26 07:48 -30.56450 -66.40924 36991 ft 551 kts 52°
2026-04-26 07:49 -30.52532 -66.33255 36979 ft 553 kts 52°
2026-04-26 07:49 -30.48613 -66.25579 36976 ft 551 kts 51°
2026-04-26 07:50 -30.41950 -66.12580 36968 ft 551 kts 51°
2026-04-26 07:50 -30.37507 -66.03945 36968 ft 552 kts 51°
2026-04-26 07:51 -30.33030 -65.95253 36958 ft 551 kts 52°
2026-04-26 07:51 -30.28488 -65.86459 36952 ft 552 kts 51°
2026-04-26 07:52 -30.23937 -65.77659 36948 ft 552 kts 51°
2026-04-26 07:52 -30.19401 -65.68922 36948 ft 552 kts 51°
2026-04-26 07:53 -30.14873 -65.60210 36946 ft 552 kts 51°
2026-04-26 07:53 -30.10935 -65.52642 36949 ft 551 kts 51°
2026-04-26 07:54 -30.07007 -65.45119 36953 ft 553 kts 51°
2026-04-26 07:54 -30.03038 -65.37524 36952 ft 551 kts 51°
2026-04-26 07:55 -29.98962 -65.29758 36956 ft 552 kts 51°
2026-04-26 07:55 -29.94788 -65.21798 36957 ft 551 kts 50°
2026-04-26 07:56 -29.90241 -65.13156 36953 ft 550 kts 50°
2026-04-26 07:56 -29.86194 -65.05480 36951 ft 548 kts 50°
2026-04-26 07:57 -29.81916 -64.97383 36953 ft 551 kts 50°
2026-04-26 07:57 -29.77383 -64.88796 36954 ft 550 kts 50°
2026-04-26 07:58 -29.72788 -64.80113 36954 ft 548 kts 50°
2026-04-26 07:58 -29.68219 -64.71507 36953 ft 547 kts 50°
2026-04-26 07:59 -29.63618 -64.62873 36955 ft 550 kts 50°
2026-04-26 07:59 -29.58985 -64.54173 36955 ft 549 kts 50°
2026-04-26 08:00 -29.54357 -64.45586 36955 ft 548 kts 50°
2026-04-26 08:00 -29.50131 -64.37769 36957 ft 549 kts 50°
2026-04-26 08:01 -29.46011 -64.30147 36961 ft 548 kts 49°
2026-04-26 08:01 -29.41611 -64.22003 36970 ft 548 kts 50°
2026-04-26 08:02 -29.36999 -64.13412 36975 ft 548 kts 49°
2026-04-26 08:02 -29.32372 -64.04820 36972 ft 547 kts 50°
2026-04-26 08:03 -29.27754 -63.96271 36967 ft 548 kts 50°
2026-04-26 08:03 -29.23095 -63.87652 36962 ft 546 kts 49°
2026-04-26 08:04 -29.18480 -63.79146 36960 ft 548 kts 49°
2026-04-26 08:04 -29.14478 -63.71777 36957 ft 547 kts 49°
2026-04-26 08:05 -29.10462 -63.64401 36953 ft 546 kts 50°
2026-04-26 08:05 -29.06461 -63.57066 36952 ft 547 kts 49°
2026-04-26 08:06 -29.02439 -63.49691 36950 ft 546 kts 49°
2026-04-26 08:06 -28.98392 -63.42303 36952 ft 547 kts 50°
2026-04-26 08:07 -28.94401 -63.35011 36954 ft 546 kts 50°
2026-04-26 08:07 -28.90340 -63.27613 36952 ft 547 kts 49°
2026-04-26 08:08 -28.86031 -63.19795 36953 ft 545 kts 49°
2026-04-26 08:08 -28.81892 -63.12311 36961 ft 544 kts 49°
2026-04-26 08:09 -28.77792 -63.04909 36965 ft 543 kts 49°
2026-04-26 08:09 -28.73766 -62.97661 36966 ft 544 kts 49°
2026-04-26 08:10 -28.69732 -62.90398 36962 ft 544 kts 49°
2026-04-26 08:10 -28.65696 -62.83141 36961 ft 543 kts 49°
2026-04-26 08:11 -28.61642 -62.75880 36961 ft 543 kts 49°
2026-04-26 08:11 -28.57618 -62.68673 36957 ft 542 kts 49°
2026-04-26 08:12 -28.53584 -62.61473 36951 ft 542 kts 49°
2026-04-26 08:12 -28.49522 -62.54232 36952 ft 542 kts 50°
2026-04-26 08:13 -28.45479 -62.47033 36951 ft 542 kts 50°
2026-04-26 08:13 -28.41418 -62.39814 36951 ft 541 kts 50°
2026-04-26 08:14 -28.37297 -62.32511 36944 ft 541 kts 49°
2026-04-26 08:14 -28.33124 -62.25118 36949 ft 541 kts 49°
2026-04-26 08:15 -28.28477 -62.16904 36951 ft 540 kts 49°
2026-04-26 08:15 -28.23828 -62.08714 36951 ft 541 kts 49°
2026-04-26 08:16 -28.19518 -62.01120 36949 ft 540 kts 49°
2026-04-26 08:16 -28.15472 -61.94014 36949 ft 540 kts 49°
2026-04-26 08:17 -28.11409 -61.86881 36950 ft 541 kts 49°
2026-04-26 08:17 -28.07335 -61.79737 36948 ft 540 kts 49°
2026-04-26 08:18 -28.03270 -61.72620 36945 ft 540 kts 49°
2026-04-26 08:18 -27.99208 -61.65520 36943 ft 539 kts 49°
2026-04-26 08:19 -27.95136 -61.58421 36939 ft 538 kts 49°
2026-04-26 08:19 -27.91076 -61.51350 36941 ft 537 kts 49°
2026-04-26 08:20 -27.86836 -61.43984 36934 ft 537 kts 49°
2026-04-26 08:20 -27.82569 -61.36572 36929 ft 536 kts 50°
2026-04-26 08:21 -27.78380 -61.29303 36927 ft 535 kts 49°
2026-04-26 08:21 -27.74008 -61.21737 36929 ft 534 kts 49°
2026-04-26 08:22 -27.69825 -61.14514 36928 ft 534 kts 49°
2026-04-26 08:22 -27.65769 -61.07519 36928 ft 534 kts 49°
2026-04-26 08:23 -27.61721 -61.00552 36930 ft 534 kts 49°
2026-04-26 08:23 -27.57673 -60.93589 36929 ft 532 kts 49°
2026-04-26 08:24 -27.53600 -60.86601 36928 ft 532 kts 49°
2026-04-26 08:24 -27.49573 -60.79702 36930 ft 532 kts 49°
2026-04-26 08:25 -27.45488 -60.72724 36928 ft 532 kts 49°
2026-04-26 08:25 -27.41432 -60.65791 36929 ft 531 kts 49°
2026-04-26 08:26 -27.37384 -60.58898 36929 ft 531 kts 49°
2026-04-26 08:26 -27.33338 -60.52004 36928 ft 530 kts 49°
2026-04-26 08:27 -27.29278 -60.45110 36928 ft 530 kts 49°
2026-04-26 08:27 -27.25223 -60.38226 36928 ft 529 kts 49°
2026-04-26 08:28 -27.21107 -60.31252 36920 ft 528 kts 49°
2026-04-26 08:28 -27.17236 -60.24709 36918 ft 527 kts 49°
2026-04-26 08:29 -27.13206 -60.17902 36917 ft 527 kts 49°
2026-04-26 08:29 -27.09156 -60.11073 36913 ft 527 kts 49°
2026-04-26 08:30 -27.05088 -60.04227 36911 ft 527 kts 49°
2026-04-26 08:30 -27.01035 -59.97410 36911 ft 526 kts 49°
2026-04-26 08:31 -26.96952 -59.90557 36911 ft 525 kts 49°
2026-04-26 08:31 -26.92904 -59.83774 36910 ft 524 kts 49°
2026-04-26 08:32 -26.88827 -59.76958 36911 ft 525 kts 49°
2026-04-26 08:32 -26.84642 -59.69961 36910 ft 523 kts 49°
2026-04-26 08:33 -26.80520 -59.63084 36909 ft 522 kts 49°
2026-04-26 08:33 -26.76473 -59.56348 36906 ft 521 kts 49°
2026-04-26 08:34 -26.72449 -59.49650 36911 ft 520 kts 49°
2026-04-26 08:34 -26.68416 -59.42947 36919 ft 521 kts 49°
2026-04-26 08:35 -26.64372 -59.36239 36918 ft 519 kts 49°
2026-04-26 08:35 -26.60240 -59.29390 36916 ft 518 kts 49°
2026-04-26 08:36 -26.56238 -59.22773 36919 ft 518 kts 49°
2026-04-26 08:36 -26.52046 -59.15854 36777 ft 519 kts 49°
2026-04-26 08:37 -26.50033 -59.12532 36482 ft 516 kts 49°
2026-04-26 08:37 -26.48044 -59.09248 36189 ft 512 kts 49°
2026-04-26 08:37 -26.46047 -59.05959 35809 ft 511 kts 49°
2026-04-26 08:37 -26.44036 -59.02655 34938 ft 514 kts 49°
2026-04-26 08:38 -26.42057 -58.99398 34293 ft 511 kts 49°
2026-04-26 08:38 -26.40064 -58.96119 33671 ft 507 kts 49°
2026-04-26 08:38 -26.38106 -58.92904 32930 ft 508 kts 49°
2026-04-26 08:38 -26.36099 -58.89611 32154 ft 509 kts 49°
2026-04-26 08:39 -26.34122 -58.86378 31298 ft 512 kts 49°
2026-04-26 08:39 -26.32101 -58.83074 30361 ft 515 kts 49°
2026-04-26 08:39 -26.30082 -58.79774 29404 ft 519 kts 49°
2026-04-26 08:39 -26.28033 -58.76424 28404 ft 522 kts 49°
2026-04-26 08:40 -26.26009 -58.73109 27633 ft 519 kts 50°
2026-04-26 08:40 -26.23986 -58.69796 26895 ft 515 kts 49°
2026-04-26 08:40 -26.21980 -58.66517 26143 ft 512 kts 50°
2026-04-26 08:40 -26.19998 -58.63280 25403 ft 509 kts 50°
2026-04-26 08:41 -26.18022 -58.60057 24653 ft 505 kts 50°
2026-04-26 08:41 -26.16040 -58.56827 23894 ft 501 kts 50°
2026-04-26 08:41 -26.14113 -58.53690 23164 ft 492 kts 50°
2026-04-26 08:41 -26.12205 -58.50582 22431 ft 481 kts 50°
2026-04-26 08:42 -26.10338 -58.47546 21738 ft 470 kts 51°
2026-04-26 08:42 -26.08522 -58.44600 21035 ft 461 kts 51°
2026-04-26 08:42 -26.06731 -58.41693 20312 ft 450 kts 51°
2026-04-26 08:42 -26.04987 -58.38868 19672 ft 442 kts 52°
2026-04-26 08:43 -26.03252 -58.36058 19085 ft 438 kts 52°
2026-04-26 08:43 -26.01513 -58.33242 18524 ft 435 kts 52°
2026-04-26 08:43 -25.99817 -58.30496 17976 ft 431 kts 52°
2026-04-26 08:43 -25.98163 -58.27821 17444 ft 427 kts 52°
2026-04-26 08:44 -25.96464 -58.25066 16886 ft 423 kts 52°
2026-04-26 08:44 -25.94814 -58.22392 16338 ft 420 kts 52°
2026-04-26 08:44 -25.93164 -58.19720 15783 ft 417 kts 52°
2026-04-26 08:44 -25.91539 -58.17093 15236 ft 413 kts 52°
2026-04-26 08:45 -25.89919 -58.14477 14689 ft 410 kts 52°
2026-04-26 08:45 -25.88278 -58.11830 14126 ft 407 kts 51°
2026-04-26 08:45 -25.86736 -58.09340 13593 ft 404 kts 51°
2026-04-26 08:45 -25.85120 -58.06739 13037 ft 401 kts 51°
2026-04-26 08:46 -25.83532 -58.04184 12485 ft 397 kts 51°
2026-04-26 08:46 -25.82056 -58.01807 11967 ft 393 kts 51°
2026-04-26 08:46 -25.80504 -57.99313 11419 ft 389 kts 51°
2026-04-26 08:46 -25.78970 -57.96845 10885 ft 384 kts 51°
2026-04-26 08:47 -25.77491 -57.94466 10508 ft 374 kts 51°
2026-04-26 08:47 -25.76034 -57.92123 10271 ft 361 kts 51°
2026-04-26 08:47 -25.74621 -57.89853 10060 ft 347 kts 50°
2026-04-26 08:47 -25.73145 -57.87852 9862 ft 330 kts 41°
2026-04-26 08:48 -25.71449 -57.86236 9808 ft 308 kts 31°
2026-04-26 08:48 -25.69717 -57.84930 9827 ft 294 kts 27°
2026-04-26 08:48 -25.67998 -57.83700 9850 ft 292 kts 27°
2026-04-26 08:48 -25.66281 -57.82478 9874 ft 292 kts 27°
2026-04-26 08:49 -25.64588 -57.81267 9878 ft 293 kts 27°
2026-04-26 08:49 -25.62873 -57.80031 9692 ft 295 kts 27°
2026-04-26 08:49 -25.61150 -57.78787 9281 ft 294 kts 28°
2026-04-26 08:49 -25.59432 -57.77541 8892 ft 292 kts 28°
2026-04-26 08:50 -25.57732 -57.76307 8517 ft 290 kts 28°
2026-04-26 08:50 -25.56048 -57.75085 8153 ft 288 kts 28°
2026-04-26 08:50 -25.54363 -57.73862 7790 ft 286 kts 28°
2026-04-26 08:50 -25.52703 -57.72659 7432 ft 283 kts 28°
2026-04-26 08:51 -25.49445 -57.70296 6728 ft 277 kts 28°
2026-04-26 08:51 -25.47834 -57.69128 6385 ft 275 kts 28°
2026-04-26 08:51 -25.46236 -57.67971 6037 ft 272 kts 29°
2026-04-26 08:52 -25.44666 -57.66835 5692 ft 270 kts 29°
2026-04-26 08:52 -25.43094 -57.65699 5351 ft 267 kts 30°
2026-04-26 08:52 -25.41562 -57.64588 5218 ft 256 kts 30°
2026-04-26 08:52 -25.40078 -57.63585 5096 ft 242 kts 19°
2026-04-26 08:53 -25.38484 -57.63385 4967 ft 224 kts 345°
2026-04-26 08:53 -25.37109 -57.64114 4969 ft 222 kts 319°
2026-04-26 08:53 -25.35979 -57.65299 4998 ft 223 kts 315°
2026-04-26 08:53 -25.34824 -57.66457 4999 ft 222 kts 319°
2026-04-26 08:54 -25.33576 -57.67500 5000 ft 222 kts 324°
2026-04-26 08:54 -25.32263 -57.68389 5005 ft 219 kts 329°
2026-04-26 08:54 -25.30933 -57.69106 5004 ft 205 kts 335°
2026-04-26 08:54 -25.29623 -57.69659 5126 ft 202 kts 339°
2026-04-26 08:55 -25.28271 -57.70089 5235 ft 198 kts 343°
2026-04-26 08:55 -25.26942 -57.70382 5095 ft 193 kts 348°
2026-04-26 08:55 -25.25579 -57.70556 5031 ft 195 kts 353°
2026-04-26 08:55 -25.24215 -57.70603 5026 ft 196 kts 357°
2026-04-26 08:56 -25.22838 -57.70526 5053 ft 197 kts
2026-04-26 08:56 -25.21478 -57.70325 5060 ft 198 kts
2026-04-26 08:56 -25.20120 -57.69993 5044 ft 199 kts 11°
2026-04-26 08:56 -25.18788 -57.69537 5042 ft 200 kts 17°
2026-04-26 08:57 -25.17491 -57.68955 5046 ft 201 kts 20°
2026-04-26 08:57 -25.16231 -57.68248 5047 ft 202 kts 25°
2026-04-26 08:57 -25.15044 -57.67439 5058 ft 204 kts 30°
2026-04-26 08:57 -25.13888 -57.66492 5048 ft 206 kts 35°
2026-04-26 08:58 -25.12821 -57.65446 5042 ft 206 kts 39°
2026-04-26 08:58 -25.11822 -57.64285 4967 ft 208 kts 44°
2026-04-26 08:58 -25.10912 -57.63028 4776 ft 208 kts 50°
2026-04-26 08:58 -25.10121 -57.61714 4479 ft 206 kts 56°
2026-04-26 08:59 -25.09432 -57.60325 4167 ft 203 kts 61°
2026-04-26 08:59 -25.08873 -57.58918 3906 ft 198 kts 67°
2026-04-26 08:59 -25.08422 -57.57471 3606 ft 197 kts 72°
2026-04-26 08:59 -25.08090 -57.56026 3364 ft 196 kts 77°
2026-04-26 09:00 -25.07864 -57.54537 3122 ft 195 kts 83°
2026-04-26 09:00 -25.07750 -57.53043 3026 ft 194 kts 88°
2026-04-26 09:00 -25.07771 -57.51543 3018 ft 195 kts 99°
2026-04-26 09:00 -25.08434 -57.50251 2970 ft 194 kts 142°
2026-04-26 09:01 -25.09633 -57.49636 2818 ft 190 kts 163°
2026-04-26 09:01 -25.10882 -57.49165 2567 ft 181 kts 168°
2026-04-26 09:01 -25.12099 -57.49097 2287 ft 167 kts 186°
2026-04-26 09:01 -25.13201 -57.49286 2090 ft 153 kts 194°
2026-04-26 09:02 -25.14207 -57.49525 1873 ft 141 kts 194°
2026-04-26 09:02 -25.15158 -57.49764 1689 ft 139 kts 194°
2026-04-26 09:02 -25.16093 -57.49997 1520 ft 138 kts 193°
2026-04-26 09:02 -25.17041 -57.50227 1345 ft 138 kts 193°
2026-04-26 09:03 -25.17990 -57.50457 1168 ft 138 kts 193°
2026-04-26 09:03 -25.18928 -57.50685 989 ft 137 kts 193°
2026-04-26 09:03 -25.19861 -57.50912 806 ft 137 kts 192°
2026-04-26 09:03 -25.20792 -57.51143 621 ft 136 kts 193°
2026-04-26 09:04 -25.21716 -57.51368 474 ft 136 kts 190°
2026-04-26 09:04 -25.22650 -57.51587 304 ft 135 kts 192°
2026-04-26 09:04 -25.23524 -57.51805 274 ft 118 kts 191°
2026-04-26 09:04 -25.24168 -57.51958 283 ft 68 kts 192°
2026-04-26 09:05 -25.24479 -57.52034 288 ft 34 kts 193°
2026-04-26 09:05 -25.24696 -57.52090 292 ft 30 kts 193°
2026-04-26 09:05 -25.24894 -57.52140 295 ft 27 kts 193°
2026-04-26 09:05 -25.25072 -57.52184 298 ft 24 kts 192°
2026-04-26 09:06 -25.25234 -57.52223 301 ft 22 kts 192°
2026-04-26 09:06 -25.25359 -57.52251 302 ft 16 kts 189°
2026-04-26 09:06 -25.25457 -57.52221 304 ft 15 kts 124°
2026-04-26 09:06 -25.25487 -57.52114 306 ft 13 kts 95°
2026-04-26 09:07 -25.25425 -57.52047 306 ft 14 kts 16°
2026-04-26 09:07 -25.25403 -57.52040 306 ft 14 kts 15°
2026-04-26 09:08 -25.25292 -57.52009 304 ft 16 kts 11°
2026-04-26 09:08 -25.25175 -57.51984 303 ft 17 kts 12°
2026-04-26 09:08 -25.25151 -57.51978 302 ft 18 kts 12°